This is the latest recevied weather packets stored in our database for station/object IW4DZV-13. If no packets are shown the sender has not sent any weather packets the latest 10 day(s).
| Time | Temp. | Humidity | Pressure | Rain* | Wind** | Luminosity | Snow |
|---|---|---|---|---|---|---|---|
| 1788021049 | 30.56° C | 44% | 1011 hPa | 0.25 mm | - | 33 W/m² | - |
| 1788020143 | 30.56° C | 41% | 1011 hPa | 0.25 mm | - | 35 W/m² | - |
| 1788019254 | 31.11° C | 39% | 1011 hPa | 0.25 mm | - | 40 W/m² | - |
| 1788018345 | 31.11° C | 40% | 1011.1 hPa | 0.25 mm | - | 84 W/m² | - |
| 1788017446 | 31.11° C | 39% | 1011 hPa | 0.25 mm | - | 44 W/m² | - |
| 1788016541 | 31.11° C | 39% | 1011 hPa | 0.25 mm | - | 44 W/m² | - |
| 1788015643 | 31.11° C | 39% | 1011.1 hPa | 0.25 mm | - | 47 W/m² | - |
| 1788014744 | 31.11° C | 39% | 1011.1 hPa | 0.25 mm | - | 93 W/m² | - |
| 1788013840 | 31.11° C | 38% | 1011.2 hPa | 0.25 mm | - | 69 W/m² | - |
| 1788012939 | 31.11° C | 38% | 1011.4 hPa | 0.25 mm | - | 100 W/m² | - |
| 1788012039 | 31.11° C | 38% | 1011.5 hPa | 0.25 mm | - | 54 W/m² | - |
| 1788011145 | 31.67° C | 37% | 1011.5 hPa | 0.25 mm | - | 63 W/m² | - |
| 1788010238 | 31.67° C | 36% | 1011.7 hPa | 0.25 mm | - | 56 W/m² | - |
| 1788009337 | 32.22° C | 39% | 1011.9 hPa | 0.25 mm | - | 399 W/m² | - |
| 1788008446 | 32.22° C | 39% | 1012 hPa | 0.25 mm | - | 721 W/m² | - |
| 1788007538 | 32.22° C | 36% | 1012.1 hPa | 0.25 mm | - | 742 W/m² | - |
| 1788006634 | 32.22° C | 44% | 1012.3 hPa | 0.25 mm | - | 761 W/m² | - |
| 1788005733 | 31.67° C | 39% | 1012.3 hPa | 0.25 mm | - | 777 W/m² | - |
| 1788004832 | 31.67° C | 38% | 1012.3 hPa | 0.25 mm | - | 798 W/m² | - |
| 1788003931 | 31.67° C | 44% | 1012.3 hPa | 0.25 mm | - | 802 W/m² | - |
| 1788003031 | 31.67° C | 39% | 1012.5 hPa | 0.25 mm | - | 810 W/m² | - |
| 1788002131 | 31.67° C | 44% | 1012.7 hPa | 0.25 mm | - | 812 W/m² | - |
| 1788001233 | 31.11° C | 44% | 1012.7 hPa | 0.25 mm | - | 812 W/m² | - |
| 1788000325 | 31.11° C | 42% | 1012.8 hPa | 0.25 mm | - | 802 W/m² | - |
| 1787999426 | 30.56° C | 43% | 1012.8 hPa | 0.25 mm | - | 800 W/m² | - |
* Rain since midnight (hover to see other rain measurements)
** Current wind speed in m/s (hover to see current wind gust speed)